CAL177 RJBB-RCKH

Flight info

Callsign CAL177
Flight time 2h 56m
Altitude 34000
Route OMGOR Y34 IVTER Y236 MULAB Y75 SWANO Y26 IGURU Q13 PICHU J7 HCN
Aircraft A21N/M-SDE1E2E3FGHIJ1J3J4J7M3P2RWYZ/LB1D1

Departure

Time 2026-04-29 12:14
Airport Kansai International Airport (RJBB)

Arrival

Time 2026-04-29 15:11
Airport Kaohsiung International Airport (RCKH)
Time Latitude Longitude Altitude Speed Heading
2026-04-29 11:29 34.43267 135.24369 26 ft 0 kts 321°
2026-04-29 11:57 34.43258 135.24379 27 ft 4 kts 321°
2026-04-29 11:57 34.43237 135.24399 27 ft 4 kts 320°
2026-04-29 11:57 34.43219 135.24423 26 ft 4 kts 296°
2026-04-29 11:58 34.43213 135.24451 27 ft 4 kts 259°
2026-04-29 11:58 34.43220 135.24471 26 ft 1 kts 231°
2026-04-29 11:58 34.43222 135.24473 26 ft 0 kts 231°
2026-04-29 12:02 34.43216 135.24464 24 ft 4 kts 231°
2026-04-29 12:02 34.43191 135.24425 24 ft 9 kts 231°
2026-04-29 12:03 34.43147 135.24359 25 ft 11 kts 231°
2026-04-29 12:03 34.43091 135.24276 24 ft 13 kts 231°
2026-04-29 12:03 34.43022 135.24219 24 ft 12 kts 185°
2026-04-29 12:03 34.42948 135.24201 26 ft 11 kts 214°
2026-04-29 12:04 34.42893 135.24128 24 ft 13 kts 231°
2026-04-29 12:04 34.42834 135.24040 24 ft 14 kts 231°
2026-04-29 12:04 34.42769 135.23943 24 ft 15 kts 231°
2026-04-29 12:04 34.42699 135.23837 24 ft 17 kts 231°
2026-04-29 12:05 34.42624 135.23725 24 ft 17 kts 231°
2026-04-29 12:05 34.42581 135.23632 24 ft 11 kts 265°
2026-04-29 12:05 34.42622 135.23550 26 ft 13 kts 322°
2026-04-29 12:05 34.42702 135.23472 24 ft 17 kts 321°
2026-04-29 12:06 34.42804 135.23374 24 ft 20 kts 320°
2026-04-29 12:06 34.42915 135.23263 24 ft 20 kts 321°
2026-04-29 12:06 34.43023 135.23158 28 ft 20 kts 321°
2026-04-29 12:06 34.43131 135.23052 31 ft 19 kts 321°
2026-04-29 12:07 34.43221 135.22965 34 ft 16 kts 321°
2026-04-29 12:07 34.43313 135.22875 34 ft 18 kts 321°
2026-04-29 12:07 34.43410 135.22780 34 ft 19 kts 321°
2026-04-29 12:07 34.43513 135.22679 34 ft 18 kts 321°
2026-04-29 12:08 34.43609 135.22586 34 ft 18 kts 321°
2026-04-29 12:08 34.43687 135.22510 34 ft 13 kts 321°
2026-04-29 12:08 34.43758 135.22440 34 ft 12 kts 318°
2026-04-29 12:08 34.43784 135.22360 34 ft 11 kts 252°
2026-04-29 12:09 34.43744 135.22285 34 ft 10 kts 231°
2026-04-29 12:09 34.43691 135.22205 34 ft 13 kts 231°
2026-04-29 12:09 34.43630 135.22113 34 ft 15 kts 231°
2026-04-29 12:09 34.43558 135.22008 34 ft 17 kts 231°
2026-04-29 12:10 34.43482 135.21894 34 ft 18 kts 231°
2026-04-29 12:10 34.43402 135.21775 34 ft 19 kts 231°
2026-04-29 12:10 34.43316 135.21647 34 ft 20 kts 231°
2026-04-29 12:10 34.43226 135.21513 34 ft 21 kts 231°
2026-04-29 12:11 34.43131 135.21373 34 ft 22 kts 231°
2026-04-29 12:11 34.43040 135.21237 34 ft 19 kts 231°
2026-04-29 12:11 34.42963 135.21121 34 ft 13 kts 231°
2026-04-29 12:11 34.42901 135.21030 34 ft 15 kts 231°
2026-04-29 12:12 34.42835 135.20933 34 ft 15 kts 230°
2026-04-29 12:12 34.42773 135.20841 34 ft 11 kts 231°
2026-04-29 12:12 34.42754 135.20758 34 ft 10 kts 289°
2026-04-29 12:12 34.42802 135.20695 31 ft 10 kts 323°
2026-04-29 12:13 34.42854 135.20651 30 ft 9 kts 340°
2026-04-29 12:13 34.42898 135.20678 30 ft 6 kts 53°
2026-04-29 12:13 34.42902 135.20685 30 ft 0 kts 52°
2026-04-29 12:14 34.42994 135.20824 32 ft 54 kts 51°
2026-04-29 12:14 34.43384 135.21404 38 ft 122 kts 51°
2026-04-29 12:14 34.44034 135.22373 85 ft 167 kts 50°
2026-04-29 12:14 34.44754 135.23450 748 ft 160 kts 49°
2026-04-29 12:15 34.45602 135.24315 1297 ft 164 kts 23°
2026-04-29 12:15 34.46752 135.24516 1891 ft 171 kts 357°
2026-04-29 12:15 34.47875 135.24023 2514 ft 174 kts 327°
2026-04-29 12:15 34.48635 135.22866 3135 ft 182 kts 294°
2026-04-29 12:16 34.48791 135.21306 3561 ft 201 kts 266°
2026-04-29 12:16 34.48354 135.19632 3994 ft 222 kts 244°
2026-04-29 12:16 34.47523 135.17934 4416 ft 245 kts 240°
2026-04-29 12:16 34.46591 135.16137 5041 ft 257 kts 240°
2026-04-29 12:17 34.45636 135.14292 5867 ft 260 kts 241°
2026-04-29 12:17 34.44662 135.12438 6737 ft 262 kts 239°
2026-04-29 12:17 34.43588 135.10642 7557 ft 264 kts 237°
2026-04-29 12:17 34.42490 135.08849 8406 ft 265 kts 237°
2026-04-29 12:18 34.41391 135.07053 9240 ft 266 kts 237°
2026-04-29 12:18 34.40291 135.05253 10066 ft 267 kts 237°
2026-04-29 12:18 34.39156 135.03392 10468 ft 283 kts 237°
2026-04-29 12:18 34.37944 135.01404 10724 ft 303 kts 237°
2026-04-29 12:19 34.36648 134.99276 10957 ft 323 kts 237°
2026-04-29 12:19 34.35280 134.97020 11167 ft 342 kts 236°
2026-04-29 12:19 34.33834 134.94642 11459 ft 356 kts 236°
2026-04-29 12:19 34.32348 134.92210 12018 ft 362 kts 236°
2026-04-29 12:20 34.30844 134.89755 12619 ft 364 kts 236°
2026-04-29 12:20 34.29329 134.87289 13258 ft 366 kts 236°
2026-04-29 12:20 34.27805 134.84810 13897 ft 368 kts 236°
2026-04-29 12:20 34.26295 134.82347 14445 ft 371 kts 236°
2026-04-29 12:21 34.24755 134.79834 14995 ft 373 kts 236°
2026-04-29 12:21 34.23184 134.77277 15568 ft 375 kts 236°
2026-04-29 12:21 34.21651 134.74774 16195 ft 376 kts 236°
2026-04-29 12:21 34.20096 134.72233 16855 ft 377 kts 236°
2026-04-29 12:22 34.18531 134.69680 17459 ft 378 kts 236°
2026-04-29 12:22 34.16957 134.67118 18048 ft 380 kts 236°
2026-04-29 12:22 34.15387 134.64544 18582 ft 381 kts 238°
2026-04-29 12:22 34.13871 134.61901 19037 ft 383 kts 238°
2026-04-29 12:23 34.12364 134.59239 19484 ft 385 kts 239°
2026-04-29 12:23 34.10847 134.56559 19919 ft 388 kts 239°
2026-04-29 12:23 34.09313 134.53864 20345 ft 390 kts 239°
2026-04-29 12:23 34.07767 134.51152 20764 ft 393 kts 239°
2026-04-29 12:24 34.06217 134.48437 21191 ft 395 kts 239°
2026-04-29 12:24 34.04652 134.45699 21607 ft 398 kts 239°
2026-04-29 12:24 34.03077 134.42938 22007 ft 400 kts 239°
2026-04-29 12:24 34.01497 134.40173 22367 ft 403 kts 239°
2026-04-29 12:25 33.99896 134.37393 22742 ft 404 kts 239°
2026-04-29 12:25 33.98280 134.34595 23106 ft 407 kts 238°
2026-04-29 12:25 33.95023 134.28961 23859 ft 412 kts 239°
2026-04-29 12:26 33.93401 134.26156 24181 ft 415 kts 238°
2026-04-29 12:26 33.91748 134.23299 24528 ft 416 kts 238°
2026-04-29 12:26 33.90072 134.20436 24917 ft 419 kts 238°
2026-04-29 12:26 33.88951 134.18540 25137 ft 420 kts 238°
2026-04-29 12:27 33.86683 134.14704 25597 ft 420 kts 238°
2026-04-29 12:27 33.84989 134.11839 26009 ft 418 kts 238°
2026-04-29 12:27 33.83874 134.09955 26281 ft 416 kts 238°
2026-04-29 12:27 33.82192 134.07118 26652 ft 416 kts 238°
2026-04-29 12:28 33.80514 134.04280 27045 ft 415 kts 238°
2026-04-29 12:28 33.78843 134.01461 27516 ft 413 kts 238°
2026-04-29 12:28 33.77176 133.98651 27968 ft 412 kts 238°
2026-04-29 12:28 33.74975 133.94944 28585 ft 410 kts 238°
2026-04-29 12:29 33.73860 133.93066 28884 ft 409 kts 238°
2026-04-29 12:29 33.72206 133.90287 29299 ft 407 kts 238°
2026-04-29 12:29 33.70577 133.87547 29618 ft 408 kts 238°
2026-04-29 12:29 33.68929 133.84775 29947 ft 408 kts 238°
2026-04-29 12:30 33.67273 133.82001 30342 ft 407 kts 238°
2026-04-29 12:30 33.65626 133.79242 30738 ft 404 kts 238°
2026-04-29 12:30 33.63998 133.76516 31120 ft 401 kts 238°
2026-04-29 12:30 33.62371 133.73793 31434 ft 400 kts 238°
2026-04-29 12:31 33.60750 133.71084 31708 ft 400 kts 238°
2026-04-29 12:31 33.59127 133.68379 31961 ft 399 kts 238°
2026-04-29 12:31 33.57500 133.65671 32233 ft 399 kts 238°
2026-04-29 12:31 33.55882 133.62977 32523 ft 398 kts 238°
2026-04-29 12:32 33.54236 133.60317 32824 ft 397 kts 234°
2026-04-29 12:32 33.52278 133.57962 33109 ft 401 kts 225°
2026-04-29 12:32 33.50089 133.55878 33384 ft 402 kts 224°
2026-04-29 12:32 33.47870 133.53841 33597 ft 402 kts 223°
2026-04-29 12:33 33.45654 133.51802 33809 ft 401 kts 223°
2026-04-29 12:33 33.43445 133.49758 34043 ft 401 kts 223°
2026-04-29 12:33 33.41240 133.47709 34124 ft 401 kts 223°
2026-04-29 12:34 33.36848 133.43612 34111 ft 400 kts 224°
2026-04-29 12:34 33.32459 133.39508 34096 ft 401 kts 223°
2026-04-29 12:35 33.28062 133.35408 34100 ft 401 kts 223°
2026-04-29 12:35 33.23682 133.31332 34096 ft 401 kts 223°
2026-04-29 12:36 33.19276 133.27239 34097 ft 402 kts 223°
2026-04-29 12:36 33.14853 133.23131 34097 ft 402 kts 223°
2026-04-29 12:37 33.10437 133.19033 34089 ft 401 kts 223°
2026-04-29 12:37 33.06024 133.14942 34085 ft 403 kts 223°
2026-04-29 12:38 33.01583 133.10836 34089 ft 404 kts 223°
2026-04-29 12:38 32.97138 133.06733 34091 ft 404 kts 223°
2026-04-29 12:39 32.92693 133.02624 34075 ft 405 kts 223°
2026-04-29 12:39 32.88262 132.98541 34080 ft 406 kts 223°
2026-04-29 12:40 32.83800 132.94433 34068 ft 404 kts 223°
2026-04-29 12:40 32.79348 132.90343 34072 ft 405 kts 223°
2026-04-29 12:41 32.74883 132.86244 34085 ft 405 kts 223°
2026-04-29 12:41 32.70419 132.82151 34090 ft 405 kts 223°
2026-04-29 12:42 32.65950 132.78065 34090 ft 405 kts 223°
2026-04-29 12:42 32.61484 132.73981 34091 ft 405 kts 223°
2026-04-29 12:43 32.57011 132.69896 34093 ft 405 kts 223°
2026-04-29 12:43 32.52560 132.65837 34094 ft 405 kts 223°
2026-04-29 12:44 32.48076 132.61753 34090 ft 407 kts 223°
2026-04-29 12:44 32.43592 132.57674 34108 ft 405 kts 223°
2026-04-29 12:45 32.39117 132.53610 34102 ft 406 kts 223°
2026-04-29 12:45 32.34630 132.49536 34088 ft 407 kts 223°
2026-04-29 12:46 32.30134 132.45465 34094 ft 407 kts 223°
2026-04-29 12:46 32.25670 132.41420 34094 ft 407 kts 223°
2026-04-29 12:47 32.21186 132.37370 34103 ft 406 kts 222°
2026-04-29 12:47 32.16691 132.33308 34100 ft 407 kts 222°
2026-04-29 12:48 32.12182 132.29247 34116 ft 407 kts 222°
2026-04-29 12:48 32.07684 132.25197 34108 ft 407 kts 222°
2026-04-29 12:49 32.03161 132.21129 34102 ft 409 kts 222°
2026-04-29 12:49 31.98643 132.17072 34094 ft 407 kts 222°
2026-04-29 12:50 31.94132 132.13025 34105 ft 408 kts 222°
2026-04-29 12:50 31.89630 132.08994 34100 ft 409 kts 222°
2026-04-29 12:51 31.85095 132.04934 34107 ft 410 kts 222°
2026-04-29 12:51 31.80557 132.00880 34106 ft 410 kts 222°
2026-04-29 12:52 31.76008 131.96822 34090 ft 412 kts 222°
2026-04-29 12:52 31.71433 131.92743 34103 ft 412 kts 222°
2026-04-29 12:53 31.66859 131.88670 34105 ft 413 kts 222°
2026-04-29 12:53 31.62289 131.84605 34092 ft 413 kts 222°
2026-04-29 12:54 31.57694 131.80524 34108 ft 414 kts 222°
2026-04-29 12:54 31.53096 131.76449 34108 ft 414 kts 222°
2026-04-29 12:55 31.48503 131.72378 34100 ft 414 kts 222°
2026-04-29 12:55 31.43934 131.68338 34098 ft 415 kts 222°
2026-04-29 12:56 31.39329 131.64266 34102 ft 415 kts 222°
2026-04-29 12:56 31.34709 131.60195 34101 ft 415 kts 222°
2026-04-29 12:57 31.30091 131.56126 34098 ft 415 kts 222°
2026-04-29 12:57 31.25475 131.52066 34093 ft 415 kts 221°
2026-04-29 12:58 31.20858 131.48006 34095 ft 415 kts 221°
2026-04-29 12:58 31.16236 131.43948 34089 ft 415 kts 221°
2026-04-29 12:59 31.11643 131.39919 34089 ft 415 kts 221°
2026-04-29 12:59 31.07022 131.35874 34088 ft 415 kts 221°
2026-04-29 13:00 31.02400 131.31830 34091 ft 414 kts 221°
2026-04-29 13:00 30.97751 131.27768 34080 ft 415 kts 221°
2026-04-29 13:01 30.93125 131.23735 34081 ft 415 kts 221°
2026-04-29 13:01 30.88490 131.19695 34080 ft 415 kts 221°
2026-04-29 13:02 30.83893 131.15695 34064 ft 415 kts 221°
2026-04-29 13:02 30.79256 131.11661 34082 ft 415 kts 221°
2026-04-29 13:03 30.74629 131.07643 34080 ft 415 kts 221°
2026-04-29 13:03 30.69999 131.03627 34083 ft 415 kts 221°
2026-04-29 13:04 30.65378 130.99625 34079 ft 416 kts 221°
2026-04-29 13:04 30.60731 130.95608 34084 ft 416 kts 221°
2026-04-29 13:05 30.56083 130.91593 34082 ft 416 kts 221°
2026-04-29 13:05 30.51481 130.87629 34070 ft 414 kts 221°
2026-04-29 13:06 30.46859 130.83640 34079 ft 414 kts 221°
2026-04-29 13:06 30.42220 130.79643 34076 ft 415 kts 221°
2026-04-29 13:07 30.37582 130.75656 34075 ft 415 kts 221°
2026-04-29 13:07 30.32968 130.71700 34069 ft 415 kts 221°
2026-04-29 13:08 30.28307 130.67714 34066 ft 416 kts 221°
2026-04-29 13:08 30.23644 130.63732 34065 ft 416 kts 221°
2026-04-29 13:09 30.18999 130.59751 34049 ft 415 kts 221°
2026-04-29 13:09 30.14387 130.55800 34065 ft 415 kts 221°
2026-04-29 13:10 30.09740 130.51831 34059 ft 415 kts 221°
2026-04-29 13:10 30.05086 130.47862 34064 ft 415 kts 221°
2026-04-29 13:11 30.00446 130.43910 34057 ft 414 kts 221°
2026-04-29 13:11 29.95801 130.39957 34061 ft 414 kts 221°
2026-04-29 13:12 29.91937 130.36683 34067 ft 414 kts 221°
2026-04-29 13:12 29.86544 130.32104 34040 ft 415 kts 221°
2026-04-29 13:13 29.82641 130.28793 34058 ft 416 kts 221°
2026-04-29 13:13 29.78005 130.24866 34069 ft 416 kts 221°
2026-04-29 13:14 29.73340 130.20925 34063 ft 415 kts 221°
2026-04-29 13:14 29.68687 130.16993 34046 ft 416 kts 221°
2026-04-29 13:15 29.64009 130.13047 34061 ft 417 kts 221°
2026-04-29 13:15 29.59326 130.09102 34051 ft 417 kts 221°
2026-04-29 13:16 29.55085 130.04719 34064 ft 411 kts 230°
2026-04-29 13:16 29.51150 129.99967 34061 ft 409 kts 230°
2026-04-29 13:17 29.47211 129.95229 34060 ft 410 kts 230°
2026-04-29 13:17 29.43266 129.90500 34058 ft 410 kts 230°
2026-04-29 13:18 29.39323 129.85781 34058 ft 410 kts 230°
2026-04-29 13:18 29.35365 129.81055 34058 ft 412 kts 230°
2026-04-29 13:19 29.31403 129.76327 34052 ft 410 kts 230°
2026-04-29 13:19 29.27444 129.71611 34051 ft 410 kts 230°
2026-04-29 13:20 29.23509 129.66922 34049 ft 411 kts 230°
2026-04-29 13:20 29.19534 129.62197 34048 ft 411 kts 230°
2026-04-29 13:21 29.15562 129.57479 34066 ft 411 kts 229°
2026-04-29 13:21 29.11597 129.52774 34057 ft 410 kts 229°
2026-04-29 13:22 29.07629 129.48072 34061 ft 410 kts 229°
2026-04-29 13:22 29.03683 129.43407 34039 ft 411 kts 229°
2026-04-29 13:23 28.99700 129.38708 34042 ft 412 kts 229°
2026-04-29 13:23 28.95737 129.33982 34053 ft 411 kts 230°
2026-04-29 13:24 28.91803 129.29254 34046 ft 410 kts 230°
2026-04-29 13:24 28.87861 129.24526 34032 ft 411 kts 229°
2026-04-29 13:25 28.83909 129.19803 34043 ft 411 kts 229°
2026-04-29 13:25 28.77978 129.12720 34046 ft 412 kts 229°
2026-04-29 13:26 28.74022 129.08008 34031 ft 411 kts 229°
2026-04-29 13:26 28.70053 129.03281 34044 ft 413 kts 229°
2026-04-29 13:27 28.66076 128.98550 34041 ft 413 kts 229°
2026-04-29 13:27 28.62093 128.93826 34040 ft 413 kts 229°
2026-04-29 13:28 28.58113 128.89102 34034 ft 414 kts 229°
2026-04-29 13:28 28.54120 128.84370 34039 ft 414 kts 229°
2026-04-29 13:29 28.50127 128.79644 34040 ft 414 kts 229°
2026-04-29 13:29 28.46152 128.74943 34034 ft 414 kts 229°
2026-04-29 13:30 28.42156 128.70225 34035 ft 414 kts 229°
2026-04-29 13:30 28.38128 128.65476 34036 ft 418 kts 229°
2026-04-29 13:31 28.34092 128.60721 34032 ft 417 kts 229°
2026-04-29 13:31 28.30070 128.55987 34031 ft 417 kts 229°
2026-04-29 13:32 28.26064 128.51280 34033 ft 417 kts 229°
2026-04-29 13:32 28.22018 128.46527 34030 ft 419 kts 229°
2026-04-29 13:33 28.17957 128.41765 34032 ft 420 kts 229°
2026-04-29 13:33 28.13902 128.37015 34026 ft 420 kts 229°
2026-04-29 13:34 28.09837 128.32258 34027 ft 420 kts 229°
2026-04-29 13:34 28.05765 128.27499 34017 ft 421 kts 229°
2026-04-29 13:35 28.01687 128.22743 34024 ft 421 kts 229°
2026-04-29 13:35 27.97605 128.17982 34022 ft 421 kts 228°
2026-04-29 13:36 27.93524 128.13229 34022 ft 421 kts 228°
2026-04-29 13:36 27.89467 128.08512 34018 ft 421 kts 228°
2026-04-29 13:37 27.85384 128.03764 34014 ft 421 kts 228°
2026-04-29 13:37 27.81297 127.99022 34012 ft 421 kts 228°
2026-04-29 13:38 27.77214 127.94288 34018 ft 420 kts 228°
2026-04-29 13:38 27.73131 127.89561 34005 ft 421 kts 228°
2026-04-29 13:39 27.69046 127.84837 34012 ft 421 kts 228°
2026-04-29 13:39 27.64950 127.80106 34008 ft 421 kts 228°
2026-04-29 13:40 27.60859 127.75383 34007 ft 421 kts 228°
2026-04-29 13:40 27.56787 127.70692 33991 ft 420 kts 228°
2026-04-29 13:41 27.52682 127.65968 33996 ft 423 kts 228°
2026-04-29 13:41 27.48541 127.61235 33998 ft 424 kts 227°
2026-04-29 13:42 27.44264 127.56665 33996 ft 424 kts 226°
2026-04-29 13:42 27.39970 127.52102 33995 ft 424 kts 226°
2026-04-29 13:43 27.35702 127.47570 33996 ft 425 kts 226°
2026-04-29 13:43 27.31433 127.43044 33995 ft 421 kts 226°
2026-04-29 13:44 27.27174 127.38529 33996 ft 421 kts 226°
2026-04-29 13:44 27.22914 127.34017 34006 ft 421 kts 226°
2026-04-29 13:45 27.18634 127.29490 33984 ft 425 kts 226°
2026-04-29 13:45 27.14315 127.24928 33991 ft 426 kts 226°
2026-04-29 13:46 27.09985 127.20361 34006 ft 427 kts 226°
2026-04-29 13:46 27.05653 127.15795 33999 ft 427 kts 226°
2026-04-29 13:47 27.01322 127.11233 33980 ft 428 kts 226°
2026-04-29 13:47 26.96973 127.06662 33987 ft 428 kts 226°
2026-04-29 13:48 26.92649 127.02117 33994 ft 429 kts 226°
2026-04-29 13:48 26.88302 126.97557 33997 ft 425 kts 225°
2026-04-29 13:49 26.83978 126.93024 33982 ft 427 kts 226°
2026-04-29 13:49 26.79628 126.88467 33990 ft 428 kts 225°
2026-04-29 13:50 26.75270 126.83911 33988 ft 428 kts 225°
2026-04-29 13:50 26.70915 126.79364 33987 ft 428 kts 225°
2026-04-29 13:51 26.66565 126.74825 33988 ft 428 kts 225°
2026-04-29 13:51 26.62209 126.70284 33988 ft 432 kts 226°
2026-04-29 13:52 26.57808 126.65701 33987 ft 433 kts 226°
2026-04-29 13:52 26.53392 126.61109 33985 ft 433 kts 226°
2026-04-29 13:53 26.48980 126.56524 33989 ft 433 kts 226°
2026-04-29 13:53 26.44560 126.51936 33984 ft 435 kts 226°
2026-04-29 13:54 26.40122 126.47340 33984 ft 435 kts 226°
2026-04-29 13:54 26.35702 126.42763 33984 ft 435 kts 226°
2026-04-29 13:55 26.31266 126.38174 33985 ft 435 kts 226°
2026-04-29 13:55 26.26827 126.33588 33982 ft 436 kts 226°
2026-04-29 13:56 26.22371 126.28989 33990 ft 436 kts 226°
2026-04-29 13:56 26.17942 126.24423 33984 ft 436 kts 226°
2026-04-29 13:57 26.14208 126.20577 33984 ft 436 kts 226°
2026-04-29 13:57 26.09787 126.16009 33989 ft 436 kts 226°
2026-04-29 13:58 26.04588 126.10646 33989 ft 436 kts 226°
2026-04-29 13:58 26.00885 126.06834 33986 ft 436 kts 226°
2026-04-29 13:59 25.96431 126.02249 33988 ft 436 kts 226°
2026-04-29 13:59 25.91970 125.97666 33990 ft 436 kts 226°
2026-04-29 14:00 25.87513 125.93085 33983 ft 437 kts 226°
2026-04-29 14:00 25.83048 125.88503 33987 ft 437 kts 226°
2026-04-29 14:01 25.78582 125.83932 33981 ft 437 kts 226°
2026-04-29 14:01 25.74099 125.79345 33986 ft 437 kts 226°
2026-04-29 14:02 25.69630 125.74776 33974 ft 437 kts 226°
2026-04-29 14:02 25.65182 125.70233 33985 ft 437 kts 226°
2026-04-29 14:03 25.60705 125.65665 33984 ft 437 kts 226°
2026-04-29 14:03 25.56222 125.61098 33986 ft 437 kts 226°
2026-04-29 14:04 25.51742 125.56541 33986 ft 437 kts 226°
2026-04-29 14:04 25.47264 125.51983 33981 ft 436 kts 226°
2026-04-29 14:05 25.42786 125.47432 33986 ft 437 kts 226°
2026-04-29 14:05 25.38307 125.42887 33982 ft 437 kts 226°
2026-04-29 14:06 25.33825 125.38346 33985 ft 437 kts 226°
2026-04-29 14:06 25.29334 125.33802 33982 ft 437 kts 226°
2026-04-29 14:07 25.24873 125.29284 33985 ft 437 kts 225°
2026-04-29 14:07 25.20382 125.24747 33986 ft 437 kts 225°
2026-04-29 14:08 25.15875 125.20196 33984 ft 438 kts 225°
2026-04-29 14:08 25.11403 125.15685 33970 ft 438 kts 225°
2026-04-29 14:09 25.06898 125.11148 33970 ft 437 kts 225°
2026-04-29 14:09 25.02401 125.06622 33973 ft 437 kts 225°
2026-04-29 14:10 24.97908 125.02104 33970 ft 437 kts 225°
2026-04-29 14:10 24.93411 124.97589 33973 ft 438 kts 225°
2026-04-29 14:11 24.88900 124.93067 33966 ft 438 kts 225°
2026-04-29 14:11 24.84427 124.88583 33975 ft 438 kts 225°
2026-04-29 14:12 24.79916 124.84068 33980 ft 438 kts 225°
2026-04-29 14:12 24.75401 124.79559 33982 ft 438 kts 225°
2026-04-29 14:13 24.70886 124.75055 33982 ft 438 kts 225°
2026-04-29 14:13 24.66405 124.70587 33981 ft 437 kts 225°
2026-04-29 14:14 24.61898 124.66102 33969 ft 437 kts 225°
2026-04-29 14:14 24.57385 124.61614 33980 ft 437 kts 225°
2026-04-29 14:15 24.52864 124.57126 33986 ft 437 kts 225°
2026-04-29 14:15 24.48361 124.52662 33972 ft 435 kts 225°
2026-04-29 14:16 24.43865 124.48202 33975 ft 435 kts 225°
2026-04-29 14:16 24.39376 124.43751 33973 ft 435 kts 225°
2026-04-29 14:17 24.34888 124.39307 33969 ft 434 kts 225°
2026-04-29 14:17 24.30399 124.34865 33968 ft 434 kts 225°
2026-04-29 14:18 24.25923 124.30441 33964 ft 430 kts 225°
2026-04-29 14:18 24.21477 124.26053 33969 ft 430 kts 225°
2026-04-29 14:19 24.17060 124.21695 33974 ft 430 kts 225°
2026-04-29 14:19 24.12614 124.17315 33979 ft 430 kts 225°
2026-04-29 14:20 24.08161 124.12933 33980 ft 430 kts 225°
2026-04-29 14:20 24.03715 124.08566 33981 ft 430 kts 225°
2026-04-29 14:21 23.99263 124.04193 33980 ft 430 kts 225°
2026-04-29 14:21 23.94922 123.99715 33976 ft 427 kts 232°
2026-04-29 14:22 23.91492 123.94450 33982 ft 424 kts 238°
2026-04-29 14:22 23.88206 123.89101 33973 ft 423 kts 238°
2026-04-29 14:23 23.84902 123.83783 33979 ft 423 kts 238°
2026-04-29 14:23 23.81615 123.78508 33975 ft 423 kts 238°
2026-04-29 14:24 23.78294 123.73189 33974 ft 423 kts 238°
2026-04-29 14:24 23.74975 123.67878 33975 ft 422 kts 238°
2026-04-29 14:25 23.71674 123.62598 33974 ft 421 kts 238°
2026-04-29 14:25 23.68377 123.57331 33957 ft 421 kts 238°
2026-04-29 14:26 23.65065 123.52042 33969 ft 421 kts 238°
2026-04-29 14:26 23.61773 123.46799 33970 ft 422 kts 238°
2026-04-29 14:27 23.58454 123.41520 33973 ft 422 kts 238°
2026-04-29 14:28 23.53482 123.33604 33967 ft 421 kts 238°
2026-04-29 14:28 23.50162 123.28331 33967 ft 421 kts 238°
2026-04-29 14:29 23.46850 123.23076 33964 ft 420 kts 238°
2026-04-29 14:29 23.43558 123.17864 33964 ft 420 kts 238°
2026-04-29 14:30 23.40252 123.12622 33963 ft 420 kts 238°
2026-04-29 14:30 23.36943 123.07386 33965 ft 420 kts 237°
2026-04-29 14:31 23.33623 123.02141 33963 ft 420 kts 237°
2026-04-29 14:31 23.30128 122.97031 33962 ft 421 kts 234°
2026-04-29 14:32 23.26509 122.92033 33956 ft 420 kts 234°
2026-04-29 14:32 23.22891 122.87054 33961 ft 420 kts 234°
2026-04-29 14:33 23.19274 122.82072 33947 ft 420 kts 234°
2026-04-29 14:33 23.15683 122.77117 33948 ft 419 kts 234°
2026-04-29 14:34 23.12084 122.72145 33948 ft 418 kts 234°
2026-04-29 14:34 23.08473 122.67178 33935 ft 418 kts 234°
2026-04-29 14:35 23.04870 122.62227 33943 ft 418 kts 234°
2026-04-29 14:35 23.01270 122.57283 33946 ft 416 kts 233°
2026-04-29 14:36 22.97678 122.52352 33946 ft 416 kts 233°
2026-04-29 14:36 22.94082 122.47427 33941 ft 416 kts 233°
2026-04-29 14:37 22.90479 122.42500 33944 ft 416 kts 233°
2026-04-29 14:37 22.86879 122.37576 33931 ft 417 kts 233°
2026-04-29 14:38 22.83275 122.32649 33942 ft 416 kts 233°
2026-04-29 14:38 22.79695 122.27767 33934 ft 416 kts 233°
2026-04-29 14:39 22.76096 122.22853 33939 ft 416 kts 233°
2026-04-29 14:39 22.72496 122.17942 33936 ft 416 kts 233°
2026-04-29 14:40 22.68887 122.13023 33932 ft 416 kts 233°
2026-04-29 14:40 22.65890 122.08949 33949 ft 416 kts 233°
2026-04-29 14:41 22.62289 122.04055 33940 ft 415 kts 233°
2026-04-29 14:41 22.58108 121.98383 33946 ft 415 kts 233°
2026-04-29 14:42 22.55089 121.94293 33942 ft 415 kts 233°
2026-04-29 14:42 22.51490 121.89414 33941 ft 415 kts 233°
2026-04-29 14:43 22.47917 121.84567 33938 ft 415 kts 233°
2026-04-29 14:43 22.44316 121.79695 33839 ft 413 kts 233°
2026-04-29 14:43 22.42519 121.77268 33477 ft 413 kts 233°
2026-04-29 14:44 22.40706 121.74817 33225 ft 420 kts 233°
2026-04-29 14:44 22.38877 121.72346 32971 ft 422 kts 233°
2026-04-29 14:44 22.37041 121.69867 32709 ft 423 kts 233°
2026-04-29 14:44 22.35195 121.67379 32326 ft 424 kts 233°
2026-04-29 14:45 22.33353 121.64892 31881 ft 424 kts 233°
2026-04-29 14:45 22.31507 121.62397 31376 ft 426 kts 233°
2026-04-29 14:45 22.29649 121.59887 30891 ft 428 kts 233°
2026-04-29 14:45 22.27786 121.57374 30404 ft 429 kts 233°
2026-04-29 14:46 22.25941 121.54888 29929 ft 431 kts 233°
2026-04-29 14:46 22.24056 121.52348 29356 ft 434 kts 233°
2026-04-29 14:46 22.22163 121.49800 28812 ft 436 kts 233°
2026-04-29 14:46 22.20238 121.47212 28263 ft 435 kts 233°
2026-04-29 14:47 22.18376 121.44708 27720 ft 432 kts 233°
2026-04-29 14:47 22.16505 121.42193 27154 ft 428 kts 233°
2026-04-29 14:47 22.14645 121.39694 26609 ft 425 kts 233°
2026-04-29 14:47 22.12802 121.37222 26062 ft 421 kts 233°
2026-04-29 14:48 22.10972 121.34771 25519 ft 418 kts 233°
2026-04-29 14:48 22.09161 121.32347 24997 ft 411 kts 233°
2026-04-29 14:48 22.07376 121.29960 24487 ft 405 kts 233°
2026-04-29 14:48 22.05617 121.27605 23982 ft 402 kts 233°
2026-04-29 14:49 22.03870 121.25267 23474 ft 399 kts 233°
2026-04-29 14:49 22.02137 121.22951 22883 ft 395 kts 233°
2026-04-29 14:49 22.00484 121.20612 22297 ft 390 kts 238°
2026-04-29 14:49 21.99177 121.18076 21735 ft 386 kts 247°
2026-04-29 14:50 21.98320 121.15348 21217 ft 383 kts 256°
2026-04-29 14:50 21.97788 121.12547 20744 ft 381 kts 258°
2026-04-29 14:50 21.97309 121.09757 20265 ft 379 kts 258°
2026-04-29 14:50 21.96834 121.07006 19807 ft 377 kts 258°
2026-04-29 14:51 21.96342 121.04209 19334 ft 375 kts 258°
2026-04-29 14:51 21.95850 121.01457 18897 ft 373 kts 258°
2026-04-29 14:51 21.95357 120.98712 18447 ft 372 kts 258°
2026-04-29 14:51 21.94865 120.95987 17971 ft 369 kts 258°
2026-04-29 14:52 21.94378 120.93285 17466 ft 365 kts 258°
2026-04-29 14:52 21.93896 120.90602 16962 ft 363 kts 257°
2026-04-29 14:52 21.93435 120.87971 16474 ft 361 kts 259°
2026-04-29 14:52 21.93320 120.85284 16016 ft 358 kts 272°
2026-04-29 14:53 21.93869 120.82688 15592 ft 355 kts 287°
2026-04-29 14:53 21.95010 120.80346 15190 ft 351 kts 297°
2026-04-29 14:53 21.96315 120.78144 14792 ft 345 kts 298°
2026-04-29 14:53 21.97605 120.75993 14444 ft 339 kts 298°
2026-04-29 14:54 21.98869 120.73853 14170 ft 337 kts 297°
2026-04-29 14:54 22.00120 120.71717 13928 ft 337 kts 297°
2026-04-29 14:54 22.01356 120.69604 13691 ft 336 kts 297°
2026-04-29 14:54 22.02592 120.67477 13436 ft 334 kts 297°
2026-04-29 14:55 22.03823 120.65358 13184 ft 333 kts 297°
2026-04-29 14:55 22.05051 120.63250 12986 ft 332 kts 298°
2026-04-29 14:55 22.06274 120.61144 12961 ft 331 kts 297°
2026-04-29 14:55 22.07500 120.59033 12970 ft 331 kts 297°
2026-04-29 14:56 22.08717 120.56930 12975 ft 331 kts 297°
2026-04-29 14:56 22.09935 120.54824 12828 ft 330 kts 298°
2026-04-29 14:56 22.11157 120.52726 12552 ft 329 kts 298°
2026-04-29 14:56 22.12366 120.50640 12241 ft 327 kts 298°
2026-04-29 14:57 22.13567 120.48562 11925 ft 325 kts 298°
2026-04-29 14:57 22.14764 120.46497 11610 ft 324 kts 298°
2026-04-29 14:57 22.15959 120.44440 11286 ft 322 kts 298°
2026-04-29 14:57 22.17142 120.42399 10992 ft 320 kts 298°
2026-04-29 14:58 22.18317 120.40368 10692 ft 318 kts 298°
2026-04-29 14:58 22.19477 120.38364 10374 ft 309 kts 298°
2026-04-29 14:58 22.20593 120.36436 10054 ft 297 kts 298°
2026-04-29 14:58 22.21665 120.34582 9728 ft 286 kts 298°
2026-04-29 14:59 22.22687 120.32810 9405 ft 277 kts 298°
2026-04-29 14:59 22.23711 120.31027 9113 ft 276 kts 298°
2026-04-29 14:59 22.24708 120.29297 8822 ft 274 kts 298°
2026-04-29 14:59 22.25718 120.27547 8517 ft 274 kts 299°
2026-04-29 15:00 22.26723 120.25808 8224 ft 272 kts 298°
2026-04-29 15:00 22.27718 120.24078 7939 ft 271 kts 299°
2026-04-29 15:00 22.28717 120.22346 7648 ft 271 kts 299°
2026-04-29 15:00 22.29710 120.20621 7362 ft 270 kts 299°
2026-04-29 15:01 22.30698 120.18905 7075 ft 269 kts 299°
2026-04-29 15:01 22.31687 120.17188 6795 ft 268 kts 299°
2026-04-29 15:01 22.32670 120.15479 6509 ft 267 kts 300°
2026-04-29 15:01 22.33652 120.13774 6224 ft 266 kts 299°
2026-04-29 15:02 22.34627 120.12080 5948 ft 266 kts 300°
2026-04-29 15:02 22.35605 120.10383 5696 ft 267 kts 300°
2026-04-29 15:02 22.36583 120.08684 5450 ft 266 kts 300°
2026-04-29 15:02 22.37632 120.07033 5200 ft 267 kts 310°
2026-04-29 15:03 22.39139 120.05867 4953 ft 271 kts 336°
2026-04-29 15:03 22.40975 120.05559 4721 ft 276 kts
2026-04-29 15:03 22.42873 120.05901 4478 ft 276 kts
2026-04-29 15:03 22.44753 120.06335 4223 ft 275 kts
2026-04-29 15:04 22.46623 120.06757 3998 ft 273 kts
2026-04-29 15:04 22.48482 120.07162 3748 ft 272 kts
2026-04-29 15:04 22.50322 120.07554 3517 ft 266 kts
2026-04-29 15:04 22.52112 120.07930 3314 ft 257 kts
2026-04-29 15:05 22.53847 120.08291 3117 ft 248 kts
2026-04-29 15:05 22.55507 120.08637 2975 ft 237 kts 10°
2026-04-29 15:05 22.56997 120.09225 2949 ft 220 kts 28°
2026-04-29 15:05 22.58071 120.10269 2938 ft 198 kts 57°
2026-04-29 15:06 22.58461 120.11688 3009 ft 199 kts 83°
2026-04-29 15:06 22.58436 120.13179 3025 ft 199 kts 97°
2026-04-29 15:06 22.58342 120.14650 3018 ft 198 kts 91°
2026-04-29 15:06 22.58288 120.16116 2985 ft 191 kts 91°
2026-04-29 15:07 22.58242 120.17561 2840 ft 192 kts 91°
2026-04-29 15:07 22.58198 120.19006 2622 ft 191 kts 90°
2026-04-29 15:07 22.58154 120.20437 2382 ft 188 kts 90°
2026-04-29 15:07 22.58112 120.21818 2161 ft 179 kts 90°
2026-04-29 15:08 22.58072 120.23134 1929 ft 172 kts 91°
2026-04-29 15:08 22.58033 120.24418 1687 ft 167 kts 90°
2026-04-29 15:08 22.57997 120.25595 1472 ft 146 kts 90°
2026-04-29 15:08 22.57965 120.26676 1278 ft 142 kts 90°
2026-04-29 15:09 22.57933 120.27744 1101 ft 141 kts 90°
2026-04-29 15:09 22.57901 120.28794 935 ft 142 kts 90°
2026-04-29 15:09 22.57868 120.29870 767 ft 143 kts 90°
2026-04-29 15:09 22.57836 120.30954 581 ft 145 kts 91°
2026-04-29 15:10 22.57797 120.32048 334 ft 147 kts 91°
2026-04-29 15:10 22.57766 120.33138 157 ft 145 kts 92°
2026-04-29 15:10 22.57727 120.34213 46 ft 138 kts 91°
2026-04-29 15:10 22.57703 120.35081 42 ft 86 kts 90°
2026-04-29 15:11 22.57691 120.35509 42 ft 32 kts 91°
2026-04-29 15:11 22.57685 120.35701 44 ft 21 kts 92°
2026-04-29 15:11 22.57681 120.35834 45 ft 12 kts 93°
2026-04-29 15:11 22.57647 120.35904 45 ft 7 kts 152°
2026-04-29 15:12 22.57593 120.35915 44 ft 9 kts 181°
2026-04-29 15:12 22.57549 120.35905 44 ft 10 kts 206°
2026-04-29 15:12 22.57517 120.35819 43 ft 10 kts 268°
2026-04-29 15:12 22.57519 120.35736 43 ft 13 kts 273°
2026-04-29 15:13 22.57523 120.35621 43 ft 17 kts 271°
2026-04-29 15:13 22.57526 120.35487 43 ft 19 kts 272°
2026-04-29 15:13 22.57530 120.35340 43 ft 20 kts 272°
2026-04-29 15:13 22.57534 120.35205 43 ft 16 kts 272°
2026-04-29 15:14 22.57538 120.35080 43 ft 16 kts 272°
2026-04-29 15:14 22.57542 120.34957 43 ft 17 kts 272°
2026-04-29 15:14 22.57546 120.34834 44 ft 14 kts 271°
2026-04-29 15:14 22.57548 120.34724 44 ft 16 kts 271°
2026-04-29 15:15 22.57553 120.34600 44 ft 17 kts 272°
2026-04-29 15:15 22.57557 120.34464 44 ft 19 kts 272°
2026-04-29 15:15 22.57562 120.34316 44 ft 20 kts 272°
2026-04-29 15:15 22.57566 120.34198 44 ft 10 kts 271°
2026-04-29 15:16 22.57533 120.34131 44 ft 12 kts 204°
2026-04-29 15:16 22.57459 120.34119 44 ft 10 kts 193°
2026-04-29 15:16 22.57422 120.34098 44 ft 5 kts 224°
2026-04-29 15:16 22.57380 120.34060 44 ft 10 kts 202°
2026-04-29 15:17 22.57305 120.34050 44 ft 11 kts 182°
2026-04-29 15:17 22.57270 120.34065 44 ft 1 kts 107°
2026-04-29 15:17 22.57268 120.34079 44 ft 2 kts 92°
2026-04-29 15:17 22.57268 120.34093 44 ft 3 kts 92°
2026-04-29 15:18 22.57267 120.34119 44 ft 0 kts 93°
2026-04-29 15:18 22.57267 120.34123 44 ft 1 kts 91°
2026-04-29 15:18 22.57267 120.34128 44 ft 0 kts 91°
2026-04-29 15:19 22.57267 120.34123 44 ft 0 kts 91°
2026-04-29 15:19 22.57267 120.34127 44 ft 0 kts 91°